DW4152 Weather Reports


time (UTC)temp
C
wind
direction
speed
KPH
gust
KPH
rain 1hr
cm
rain 24hr
cm
rain mn
cm
humidity
%
barometer
mb
20260508044538 11 119 0.0 0.0 0.00 1.57 0.00 98 1012.9
20260508043037 11 119 0.0 0.0 0.00 1.57 0.00 98 1012.9
20260508041538 11 119 0.0 0.0 0.00 1.57 0.00 98 1012.8
20260508040036 11 119 0.0 0.0 0.00 1.57 0.00 98 1012.7
20260508034538 11 119 0.0 0.0 0.00 1.73 1.57 98 1012.5
20260508033038 11 119 0.0 0.0 0.00 1.73 1.57 98 1012.5
20260508031536 11 119 0.0 0.0 0.00 1.73 1.57 98 1012.3
20260508030033 11 119 0.0 0.0 0.00 1.73 1.57 97 1012.6
20260508024529 11 119 0.0 0.0 0.00 1.75 1.57 97 1012.3
20260508023034 12 119 0.0 0.0 0.00 1.75 1.57 97 1012.1
20260508021524 12 119 0.0 0.0 0.00 1.75 1.57 97 1011.8
20260508020022 12 119 0.0 0.0 0.00 1.75 1.57 97 1011.7
20260508014523 12 119 0.0 0.0 0.00 1.75 1.57 97 1011.5
20260508013017 13 119 0.0 0.0 0.00 1.75 1.57 97 1011.0
20260508011517 13 119 0.0 0.0 0.00 1.75 1.57 97 1010.7
20260508010018 13 119 0.0 0.0 0.00 1.75 1.57 97 1010.6
20260508004515 13 119 0.0 0.0 0.00 1.75 1.57 98 1010.6
20260508003015 13 119 0.0 0.0 0.00 1.75 1.57 98 1010.8
20260508001532 13 119 0.0 0.0 0.00 1.75 1.57 98 1010.7
20260508000013 13 119 0.0 0.0 0.00 1.75 1.57 97 1010.3
20260507234512 13 119 0.0 0.0 0.00 1.75 1.57 97 1009.7
20260507233021 13 119 0.0 0.0 0.00 1.75 1.57 97 1009.7
20260507231513 13 119 0.0 0.0 0.00 1.75 1.57 97 1009.8
20260507230024 13 119 0.0 0.0 0.00 1.75 1.57 97 1009.1
20260507224520 13 119 0.0 0.0 0.00 1.75 1.57 97 1009.4
20260507223011 13 119 0.0 0.0 0.00 1.75 1.57 96 1009.3
20260507221520 13 29 0.0 0.0 0.00 1.75 1.57 97 1008.8
20260507220010 13 25 0.0 0.0 0.00 1.75 1.57 97 1009.0
20260507214508 13 24 0.0 0.0 0.05 1.75 1.57 97 1008.9
20260507213008 13 24 0.0 1.6 0.10 1.75 1.57 97 1009.0
20260507211516 13 360 0.0 11.3 0.10 1.75 1.57 97 1009.0
20260507210007 13 69 0.0 3.2 0.10 1.75 1.57 97 1008.7
20260507204506 13 94 0.0 1.6 0.05 1.70 1.52 97 1008.9
20260507203006 13 94 0.0 6.4 0.00 1.65 1.45 96 1009.1
20260507201505 13 144 0.0 9.7 0.00 1.65 1.45 96 1008.8
20260507200005 13 53 0.0 0.0 0.00 1.65 1.45 97 1008.7
20260507194504 13 53 0.0 0.0 0.00 1.65 1.45 97 1008.8
20260507193005 13 53 0.0 8.0 0.00 1.65 1.45 97 1008.7
20260507191504 13 92 0.0 4.8 0.05 1.65 1.45 98 1008.8
20260507190003 13 105 0.0 3.2 0.05 1.65 1.45 98 1008.9
20260507184501 13 68 0.0 3.2 0.05 1.70 1.45 98 1008.7
20260507183107 13 52 0.0 1.6 0.08 1.70 1.45 98 1008.9
20260507181559 13 84 0.0 3.2 0.03 1.65 1.42 97 1008.8
20260507180059 13 78 0.0 11.3 0.03 1.65 1.42 97 1008.9
20260507174556 14 82 0.0 6.4 0.08 1.65 1.42 97 1009.0
20260507173101 15 84 0.0 3.2 0.13 1.63 1.40 97 1008.8
20260507171554 15 79 0.0 8.0 0.13 1.63 1.40 97 1008.7
20260507170052 16 53 0.0 11.3 0.15 1.63 1.40 97 1008.1
20260507164544 17 87 0.0 12.9 0.08 1.55 1.32 98 1007.6
20260507163044 17 46 0.0 0.0 0.03 1.50 1.27 98 1007.8
20260507161550 17 46 0.0 6.4 0.10 1.50 1.27 98 1007.8
20260507160040 18 128 0.0 1.6 0.08 1.45 1.24 98 1008.3
20260507154542 18 209 0.0 0.0 0.13 1.45 1.24 99 1008.1
20260507153038 18 209 0.0 0.0 0.18 1.45 1.24 99 1008.8
20260507151538 18 200 0.0 0.0 0.13 1.40 1.17 99 1009.1
20260507150038 18 200 0.0 0.0 0.15 1.40 1.17 99 1008.2
20260507144534 18 200 0.0 0.0 0.13 1.35 1.12 99 1008.4
20260507143033 18 200 0.0 0.0 0.10 1.30 1.07 99 1008.5
20260507141536 18 200 0.0 0.0 0.13 1.27 1.04 99 1008.2
20260507140036 18 200 0.0 0.0 0.18 1.24 1.02 99 1007.8
20260507134529 18 200 0.0 0.0 0.25 1.22 0.99 99 1008.2
20260507133028 18 200 0.0 0.0 0.33 1.19 0.97 99 1008.6
20260507131531 18 200 0.0 0.0 0.33 1.14 0.91 99 1008.9
20260507130029 18 200 0.0 0.0 0.23 1.04 0.81 99 1009.6
20260507124526 18 200 0.0 0.0 0.15 0.97 0.71 99 1009.0
20260507123025 18 200 0.0 0.0 0.05 0.86 0.64 99 1008.7
20260507121524 18 200 0.0 0.0 0.00 0.81 0.58 99 1008.9
20260507120024 18 200 0.0 0.0 0.00 0.81 0.58 99 1008.7
20260507114523 18 200 0.0 0.0 0.03 0.81 0.58 99 1008.7
20260507113026 18 200 0.0 0.0 0.03 0.81 0.58 99 1008.5
20260507111522 18 200 0.0 0.0 0.03 0.81 0.58 99 1008.6
20260507110020 18 200 0.0 0.0 0.03 0.81 0.58 99 1008.8
20260507104519 18 200 0.0 0.0 0.00 0.79 0.56 99 1008.6
20260507103019 18 200 0.0 0.0 0.05 0.79 0.56 98 1008.6
20260507101519 18 200 0.0 0.0 0.08 0.79 0.56 98 1008.5
20260507100018 18 200 0.0 0.0 0.08 0.79 0.56 98 1008.8
20260507094518 18 200 0.0 0.0 0.08 0.79 0.56 98 1008.6
20260507093018 18 200 0.0 0.0 0.05 0.71 0.51 98 1008.7
20260507091519 18 200 0.0 0.0 0.03 0.71 0.48 98 1008.3
20260507090014 18 200 0.0 0.0 0.05 0.71 0.48 98 1008.4
20260507084533 18 200 0.0 0.0 0.08 0.71 0.48 98 1008.5
20260507083013 18 200 0.0 0.0 0.05 0.69 0.46 98 1008.5
20260507081513 18 200 0.0 0.0 0.05 0.69 0.46 98 1008.7
20260507080009 18 200 0.0 0.0 0.03 0.66 0.43 98 1009.1
20260507074508 18 200 0.0 0.0 0.00 0.64 0.41 98 1009.0
20260507073007 18 200 0.0 0.0 0.00 0.64 0.41 98 1008.9
20260507071507 18 200 0.0 0.0 0.00 0.64 0.41 98 1009.3
20260507070010 18 200 0.0 0.0 0.03 0.64 0.41 98 1009.1
20260507064504 18 200 0.0 0.0 0.08 0.64 0.41 98 1009.6
20260507063005 18 200 0.0 0.0 0.28 0.64 0.41 98 1009.4
20260507061502 18 200 0.0 0.0 0.38 0.64 0.41 97 1010.6
20260507060001 18 200 0.0 0.0 0.36 0.61 0.38 97 1010.7
20260507054615 18 200 0.0 6.4 0.30 0.56 0.33 97 1010.0
20260507053107 18 296 0.0 3.2 0.13 0.38 0.15 97 1010.9
20260507051600 18 311 0.0 0.0 0.00 0.25 0.03 97 1010.5
20260507050058 18 311 0.0 0.0 0.03 0.25 0.03 96 1010.5